SCP
0 0 0 0 0 0 0 0 0 0 0 0 0 0 0 0 0 0 0 0 0 0 0 0 0 0 0 0 0 0 0 0 0 0 0 0 0 0 0 0 0 0 0 0
0 0 0 0 0 0 0 0 0 0 0 0 0 0 0 0 0 0 0 0 0 0 0 0 0 0 0 0 0 0 0 0 0 0 0 0 0 0 0 0 0 0 0 0
0 0 0 0 0 0 0 0 0 0 0 0 0 0 0 0 0 0 0 0 0 0 0 0 0 0 0 0 0 0 0 0 0 0 0 0 0 0 0 0 0 0 0 0
0 0 0 0 0 0 0 0 0 0 0 0 0 0 0 0 0 0 0 0 0 0 0 0 0 0 0 0 0 0 0 0 0 0 0 0 0 0 0 0 0 0 0 0
0 0 0 0 0 0 0 0 0 0 0 0 0 0 0 0 0 0 0 0 0 0 0 0 0 0 0 0 0 0 0 0 0 0 0 0 0 0 0 0 0 0 0 0
0 0 0 0 0 0 0 0 0 0 0 0 0 0 0 0 0 0 0 0 0 0 0 0 0 0 0 0 0 0 0 0 0 0 0 0 0 0 0 0 0 0 0 0
0 0 0 0 0 0 0 0 0 0 0 0 0 0 0 0 0 0 0 0 0 0 0 0 0 0 0 0 0 0 0 0 0 0 0 0 0 0 0 0 0 0 0 0
0 0 0 0 0 0 0 0 0 0 0 0 0 0 0 0 0 0 0 0 0 0 0 0 0 0 0 0 0 0 0 0 0 0 0 0 0 0 0 0 0 0 0 0
0 0 0 0 0 0 0 0 0 0 0 0 0 0 0 0 0 0 0 0 0 0 0 0 0 0 0 0 0 0 0 0 0 0 0 0 0 0 0 0 0 0 0 0
0 0 0 0 0 0 0 0 0 0 0 0 0 0 0 0 0 0 0 0 0 0 0 0 0 0 0 0 0 0 0 0 0 0 0 0 0 0 0 0 0 0 0 0
0 0 0 0 0 0 0 0 0 0 0 0 0 0 0 0 0 0 0 0 0 0 0 0 0 0 0 0 0 0 0 0 0 0 0 0 0 0 0 0 0 0 0 0
0 0 0 0 0 0 0 0 0 0 0 0 0 0 0 0 0 0 0 0 0 0 0 0 0 0 0 0 0 0 0 0 0 0 0 0 0 0 0 0 0 0 0 0
0 0 0 0 0 0 0 0 0 0 0 0 0 0 0 0 0 0 0 0 0 0 0 0 0 0 0 0 0 0 0 0 0 0 0 0 0 0 0 0 0 0 0 0
0 0 0 0 0 0 0 0 0 0 0 0 0 0 0 0 0 0 0 0 0 0 0 0 0 0 0 0 0 0 0 0 0 0 0 0 0 0 0 0 0 0 0 0
0 0 0 0 0 0 0 0 0 0 0 0 0 0 0 0 0 0 0 0 0 0 0 0 0 0 0 0 0 0 0 0 0 0 0 0 0 0 0 0 0 0 0 0
0 0 0 0 0 0 0 0 0 0 0 0 0 0 0 0 0 0 0 0 0 0 0 0 0 0 0 0 0 0 0 0 0 0 0 0 0 0 0 0 0 0 0 0
0 0 0 0 0 0 0 0 0 0 0 0 0 0 0 0 0 0 0 0 0 0 0 0 0 0 0 0 0 0 0 0 0 0 0 0 0 0 0 0 0 0 0 0
0 0 0 0 0 0 0 0 0 0 0 0 0 0 0 0 0 0 0 0 0 0 0 0 0 0 0 0 0 0 0 0 0 0 0 0 0 0 0 0 0 0 0 0
0 0 0 0 0 0 0 0 0 0 0 0 0 0 0 0 0 0 0 0 0 0 0 0 0 0 0 0 0 0 0 0 0 0 0 0 0 0 0 0 0 0 0 0
0 -0 -0 -0 0 0 0 0 0 0 0 0 0 0 0 0 0 0 0 0 0 0 0 0 0 0 0 0 0 0 0 0 0 0 0 0 0 0 0 0 0 0 0 0
-0 -0 0 0 0 0 0 0 0 0 0 0 0 0 0 0 0 0 0 0 0 0 0 0 0 0 0 0 0 0 0 0 0 0 0 0 0 0 0 0 0 0 0 0
0 0 0 0 0 0 0 0 0 0 0 0 0 0 0 0 0 0 0 0 0 0 0 0 0 0 0 0 0 0 0 0 0 0 0 0 0 0 0 0 0 0 0 0
0 0 0 0 0 0 0 0 0 0 0 0 0 0 0 0 0 0 0 0 0 0 0 0 0 0 0 0 0 0 0 0 0 0 0 0 0 0 0 0 0 0 0 0
0 0 0 0 0 0 0 0 0 0 0 0 0 0 0 0 0 0 0 0 0 0 0 0 0 0 0 0 0 0 0 0 0 0 0 0 0 0 0 0 0 0 0 0
0 0 0 0 0 0 0 0 0 0 0 0 0 0 0 0 0 0 0 0 0 0 0 0 0 0 0 0 0 0 0 0 0 0 0 0 0 0 0 0 0 0 0 0
0 0 0 0 0 0 0 0 0 0 0 0 0 0 0 0 0 0 0 0 0 0 0 0 0 0 0 0 0 0 0 0 0 0 0 0 0 0 0 0 0 0 0 0
0 0 0 0 0 0 0 0 0 0 0 0 0 0 0 0 0 0 0 0 0 0 0 0 0 0 0 0 0 0 0 0 0 0 0 0 0 0 0 0 0 0 0 0
Wind_Speed
8 6 5 7 9 11 13 12 11 11 11 10 7 6 5 3 3 3 3 2 2 2 1 1 1 1 2 2 2 2 2 2 2 2 3 3 3 3 3 3 3 3 3 3
6 6 6 8 11 13 14 13 14 13 13 8 6 5 5 5 4 4 4 3 3 2 2 2 2 2 2 2 2 2 2 2 2 2 2 3 3 3 3 3 3 3 3 3
6 4 5 11 12 13 11 12 11 14 12 5 5 6 7 6 6 6 5 4 4 3 3 3 3 3 3 3 2 2 2 2 2 2 2 3 3 3 3 3 3 3 3 3
3 3 10 5 2 8 11 11 11 9 7 6 6 6 5 5 6 5 5 4 4 3 3 3 3 2 2 2 2 2 2 2 2 2 3 3 3 3 3 3 3 3 4 4
4 6 10 6 4 5 8 9 8 10 8 6 3 3 4 3 4 5 5 4 4 3 3 3 2 2 2 2 2 2 3 3 3 3 3 3 3 3 3 3 3 3 4 4
5 6 8 4 2 3 4 8 5 7 7 5 3 5 4 2 3 3 3 3 2 2 2 2 2 1 2 2 2 3 3 3 3 3 3 4 4 4 4 3 3 3 3 4
8 8 8 2 1 4 6 4 1 5 6 6 6 5 2 1 2 2 2 2 1 1 2 2 2 1 2 2 3 3 3 3 3 3 3 4 4 3 3 3 3 3 3 3
6 8 8 3 5 6 3 1 1 3 4 4 4 3 2 2 2 2 1 1 1 1 2 2 1 1 2 3 3 3 3 3 3 3 3 3 3 3 3 3 3 3 3 3
8 7 2 4 5 3 2 2 3 3 3 3 3 3 2 2 2 2 2 2 2 2 2 2 1 2 3 3 3 3 3 3 3 3 3 3 3 3 3 3 3 3 3 3
6 7 5 5 5 4 3 3 3 3 3 3 3 3 3 2 2 2 2 2 2 2 2 2 2 3 3 3 3 3 3 3 3 3 3 3 3 3 3 3 3 3 3 3
7 7 5 6 7 5 4 3 2 2 2 3 4 4 3 3 3 3 3 2 2 2 3 3 3 3 3 3 3 3 3 3 3 3 3 3 3 3 3 4 4 4 4 4
7 6 6 5 3 4 4 4 4 4 3 3 4 4 4 4 3 3 3 2 3 3 3 3 3 4 4 3 3 3 3 3 2 2 2 2 3 3 3 4 5 6 6 5
5 3 4 3 2 3 4 4 4 3 4 3 3 3 3 3 3 3 3 3 3 4 4 4 4 4 4 3 3 3 4 3 3 3 3 3 3 3 3 3 4 5 5 6
4 3 3 4 4 3 3 3 2 2 2 2 2 2 3 3 3 4 4 4 4 4 4 4 4 5 4 3 3 3 4 4 3 3 3 3 3 3 3 4 4 3 4 5
5 5 5 3 2 2 1 1 1 2 2 2 2 2 3 4 4 4 4 3 3 4 4 4 5 5 4 3 4 4 4 3 3 3 3 3 3 3 3 4 4 4 3 3
4 3 4 4 4 3 2 2 3 4 3 3 3 3 4 4 4 4 4 3 4 5 5 5 5 5 4 4 4 4 4 5 4 3 3 3 3 3 3 3 4 4 4 3
4 4 5 4 4 4 4 4 4 4 4 4 4 3 3 3 4 4 4 4 4 5 5 5 6 5 4 4 4 3 3 3 4 3 3 3 3 3 4 4 4 4 4 4
6 5 5 5 4 4 3 3 3 4 4 4 3 3 3 4 5 5 4 4 4 4 5 5 5 5 4 4 4 3 3 3 3 3 3 3 3 3 4 4 4 4 4 3
2 3 3 3 3 3 3 3 3 3 3 3 3 3 4 5 5 5 4 4 4 5 5 4 6 5 5 5 4 3 3 3 3 3 3 4 4 3 3 4 4 4 4 3
1 1 1 1 1 1 2 2 2 2 3 2 3 3 4 5 4 4 4 5 4 4 4 5 4 4 5 5 5 3 4 4 4 3 3 3 3 3 3 4 4 4 4 3
1 1 1 1 1 1 2 2 2 3 3 2 3 4 5 5 4 4 4 5 4 4 4 5 4 4 4 4 4 3 3 4 4 4 3 3 3 3 3 4 4 4 4 4
1 1 1 1 1 2 2 2 2 3 3 3 3 4 4 5 4 4 5 5 5 5 4 3 3 4 4 4 3 3 4 4 3 3 3 3 4 4 4 4 4 4 4 4
1 1 2 2 2 2 2 2 2 2 3 3 4 4 4 4 4 4 4 3 4 5 4 4 5 6 5 3 3 3 4 4 4 4 4 4 4 4 4 4 4 4 4 3
1 1 1 1 1 1 2 2 2 2 3 4 4 4 4 4 4 4 4 5 6 6 4 5 6 6 5 3 3 3 3 4 3 4 4 4 4 4 4 4 4 4 4 4
1 1 1 1 2 2 2 2 2 3 3 3 4 4 3 3 4 4 4 4 6 5 4 5 6 6 4 3 3 3 3 3 3 3 3 4 4 4 4 4 4 4 4 4
2 2 2 2 2 2 2 2 2 2 3 3 3 3 3 3 4 3 3 4 4 5 4 3 3 4 3 3 3 3 3 4 4 4 4 4 4 4 4 4 5 4 4 3
1 1 1 2 2 2 2 2 3 3 3 4 4 4 3 3 3 3 3 3 3 3 3 3 3 3 3 3 3 3 3 3 3 3 3 3 3 3 3 4 3 3 3 3
Wind_Direction
265 274 244 235 228 215 218 229 240 250 251 256 250 247 244 232 226 219 215 225 247 261 275 300 317 317 313 315 324 320 300 291 294 297 293 288 284 283 273 264 265 263 259 260
261 253 248 252 241 229 232 237 244 257 262 265 259 247 239 231 223 224 233 241 249 256 268 281 294 302 305 310 317 309 296 294 302 298 294 291 291 286 280 274 267 261 260 260
251 261 265 252 234 221 226 227 228 241 252 247 245 243 240 236 231 236 243 244 245 250 258 269 274 279 290 305 304 299 296 287 288 290 291 292 292 285 280 276 272 267 263 263
242 223 239 252 234 218 229 236 230 244 259 248 250 254 250 238 231 243 248 251 255 260 266 273 281 283 290 296 294 292 288 285 286 288 290 297 295 290 286 279 271 269 270 269
214 237 261 257 219 208 220 247 228 235 249 258 271 260 242 228 238 248 249 252 256 263 268 273 278 283 287 291 291 288 288 289 287 286 286 286 287 290 289 279 273 273 276 272
208 232 243 256 196 215 212 249 217 219 227 228 211 241 244 231 256 264 257 256 258 257 261 266 284 288 276 283 285 283 287 288 288 280 277 279 283 288 289 282 277 279 279 280
221 236 258 281 151 174 210 256 187 216 220 215 225 253 276 228 254 261 262 258 246 238 250 263 272 273 276 282 283 288 286 283 282 278 277 277 280 282 282 279 275 276 281 287
208 226 243 152 157 204 253 343 240 232 229 227 246 264 257 229 236 248 257 258 242 245 270 284 270 261 277 287 295 294 282 276 278 281 282 276 275 278 273 268 267 270 274 285
210 229 279 186 215 244 267 256 263 258 253 233 238 249 251 245 241 243 247 252 247 240 270 289 283 261 272 288 296 289 277 275 277 279 278 274 272 274 272 263 259 264 267 274
243 254 250 237 249 256 251 252 261 258 240 218 227 236 242 244 248 252 250 251 245 243 263 280 285 282 280 289 290 280 275 276 275 272 274 275 271 268 267 264 260 260 266 273
245 263 265 246 237 240 246 251 246 246 235 223 220 229 234 244 252 256 261 262 247 244 256 273 285 286 290 293 289 280 278 277 276 273 273 275 274 275 271 268 268 265 265 268
232 227 227 241 226 216 219 234 238 241 248 241 230 231 242 252 257 255 257 262 260 259 264 272 279 285 290 289 281 273 271 272 273 273 273 275 281 290 297 281 289 278 272 274
250 250 246 257 240 225 226 234 242 238 235 242 240 232 242 257 261 259 260 259 260 264 266 273 279 282 287 288 277 265 265 269 270 268 269 273 276 278 288 297 288 286 285 279
235 227 241 238 241 245 243 242 246 251 249 239 246 245 244 256 259 259 259 261 263 264 265 266 270 275 282 281 272 264 262 262 264 264 265 266 269 271 275 285 293 293 288 284
230 234 234 240 247 250 231 212 215 241 249 256 250 245 247 252 258 264 268 267 263 260 260 262 266 272 278 272 265 262 260 257 258 259 260 261 264 268 268 272 278 285 288 287
221 226 218 218 223 223 226 226 231 248 252 253 251 254 256 258 264 271 268 257 253 259 264 265 267 274 276 266 262 259 256 258 262 260 257 258 259 261 264 266 271 275 277 282
188 209 208 215 225 233 239 242 242 247 251 252 256 263 265 263 266 267 268 264 261 264 266 265 269 276 273 267 264 262 261 255 255 259 256 257 259 261 265 267 269 273 275 274
214 218 213 212 221 235 247 247 244 246 254 261 263 260 256 253 259 269 276 279 276 273 269 267 270 273 271 266 262 259 257 257 254 255 256 254 259 261 264 266 269 272 277 276
201 209 214 223 227 227 237 248 255 262 268 264 259 260 263 262 263 268 273 273 270 274 277 274 273 269 267 262 259 254 250 252 255 256 257 259 260 258 260 263 266 270 273 271
196 207 218 241 248 234 242 259 266 268 269 263 259 264 269 271 269 268 268 266 265 273 280 278 273 269 264 257 255 252 247 248 252 255 253 253 256 259 260 261 263 265 266 265
198 212 224 240 261 268 258 258 256 261 271 264 255 261 270 278 275 268 265 273 277 275 275 276 271 266 261 259 255 249 247 247 248 249 250 252 255 258 260 262 263 262 264 263
223 228 251 259 257 277 286 276 259 262 272 272 269 269 273 277 276 269 261 266 279 286 284 273 267 267 269 263 251 247 246 246 247 248 248 249 251 254 258 261 262 262 262 262
246 245 254 259 258 271 285 274 260 261 265 270 270 270 270 273 272 271 278 279 280 282 280 271 272 274 275 265 253 247 246 245 245 248 249 250 251 253 255 259 260 260 262 263
244 254 262 273 265 259 273 285 283 276 274 277 272 269 270 274 271 262 273 287 290 290 285 280 278 276 275 266 256 250 247 247 248 249 250 252 254 255 255 257 260 261 261 263
241 247 242 235 245 259 274 288 291 287 287 288 289 283 274 268 271 281 285 283 285 290 289 287 286 283 276 261 257 253 251 250 251 251 250 252 254 256 257 258 259 261 261 260
240 248 253 255 261 269 273 276 281 286 290 292 295 292 285 279 278 281 282 282 282 286 287 283 283 283 272 262 259 259 256 257 257 255 254 254 256 257 259 260 262 261 261 260
244 252 261 270 268 264 266 268 272 277 279 281 289 292 288 284 283 285 287 288 290 288 284 281 277 272 268 264 261 262 261 256 252 253 254 255 257 257 258 260 262 262 260 260